CW9861 Weather Reports


time (UTC)temp
F
wind
direction
speed
knots
gust
knots
rain 1hr
in
rain 24hr
in
rain mn
in
humidity
%
barometer
mb
20260509073459 51 217 1.7 3.5 0.00 0.00 0.00 66 1002.6
20260509072959 51 220 2.6 6.1 0.00 0.00 0.00 65 1002.6
20260509072459 51 203 0.9 7.0 0.00 0.00 0.00 63 1002.6
20260509071959 51 241 2.6 7.0 0.00 0.00 0.00 62 1002.7
20260509071458 52 219 0.9 7.8 0.00 0.00 0.00 61 1002.8
20260509070958 52 276 3.5 7.8 0.00 0.00 0.00 61 1002.7
20260509070458 52 221 3.5 7.0 0.00 0.00 0.00 61 1002.7
20260509065958 52 209 0.9 7.0 0.00 0.00 0.00 60 1002.8
20260509065458 52 201 2.6 7.0 0.00 0.00 0.00 59 1002.7
20260509064958 52 209 2.6 7.0 0.00 0.00 0.00 58 1002.9
20260509064458 52 266 2.6 7.0 0.00 0.00 0.00 56 1002.9
20260509063958 52 244 0.9 6.1 0.00 0.00 0.00 53 1003.0
20260509063459 52 247 1.7 6.1 0.00 0.00 0.00 51 1003.1
20260509062959 51 253 2.6 5.2 0.00 0.00 0.00 48 1003.1
20260509062458 51 146 2.6 7.8 0.00 0.00 0.00 45 1003.1
20260509061959 51 103 2.6 7.8 0.00 0.00 0.00 43 1003.1
20260509061459 51 204 0.9 7.0 0.00 0.00 0.00 41 1003.1
20260509060958 50 176 2.6 7.0 0.00 0.00 0.00 40 1003.3
20260509060458 50 258 1.7 5.2 0.00 0.00 0.00 40 1003.4
20260509055958 50 181 0.9 5.2 0.00 0.00 0.00 40 1003.4
20260509055459 50 199 1.7 4.3 0.00 0.00 0.00 40 1003.5
20260509054958 50 190 1.7 5.2 0.00 0.00 0.00 40 1003.5
20260509054458 50 190 0.9 5.2 0.00 0.00 0.00 39 1003.5
20260509053958 50 240 1.7 3.5 0.00 0.00 0.00 39 1003.6
20260509053458 49 169 0.9 2.6 0.00 0.00 0.00 40 1003.6
20260509052959 49 155 0.9 2.6 0.00 0.00 0.00 40 1003.7
20260509052458 49 243 0.0 3.5 0.00 0.00 0.00 41 1003.7
20260509051959 49 203 0.9 3.5 0.00 0.00 0.00 41 1003.6
20260509051459 49 218 0.9 3.5 0.00 0.00 0.00 41 1003.8
20260509050958 48 285 0.9 4.3 0.00 0.00 0.00 42 1003.8
20260509050459 48 147 1.7 4.3 0.00 0.00 0.00 42 1003.8
20260509045958 47 222 0.9 3.5 0.00 0.00 0.00 43 1003.9
20260509045458 47 209 0.9 3.5 0.00 0.00 0.00 43 1003.9
20260509044958 46 223 0.9 2.6 0.00 0.00 0.00 44 1003.7
20260509044459 46 105 0.0 2.6 0.00 0.00 0.00 45 1003.8
20260509043958 45 145 0.0 1.7 0.00 0.00 0.00 45 1003.8
20260509043459 45 130 0.0 1.7 0.00 0.00 0.00 47 1003.8
20260509042958 44 99 0.0 3.5 0.00 0.00 0.00 48 1003.9
20260509042459 44 151 0.9 3.5 0.00 0.00 0.00 48 1003.8
20260509041958 44 224 0.9 2.6 0.00 0.00 0.00 50 1004.0
20260509041458 44 87 0.0 1.7 0.00 0.00 0.00 51 1004.0
20260509040958 44 193 0.9 1.7 0.00 0.00 0.00 55 1004.0
20260509040458 44 182 0.0 0.9 0.00 0.00 0.00 59 1004.1
20260509040004 44 182 0.0 0.9 0.00 0.00 0.00 59 1004.2
20260509035459 45 182 0.0 0.9 0.00 0.00 0.00 59 1004.2
20260509034959 45 182 0.0 0.9 0.00 0.00 0.00 59 1004.2
20260509034459 45 182 0.0 0.9 0.00 0.00 0.00 56 1004.5
20260509034000 45 176 0.0 0.9 0.00 0.00 0.00 55 1004.7
20260509033459 45 168 0.0 0.9 0.00 0.00 0.00 53 1004.6
20260509032959 45 168 0.0 0.9 0.00 0.00 0.00 52 1004.5
20260509032459 45 165 0.0 0.9 0.00 0.00 0.00 53 1004.5
20260509031959 45 241 0.0 0.9 0.00 0.00 0.00 53 1004.6
20260509031459 45 241 0.0 0.9 0.00 0.00 0.00 52 1004.7
20260509030958 45 246 0.0 1.7 0.00 0.00 0.00 52 1004.7
20260509030459 45 250 0.9 1.7 0.00 0.00 0.00 53 1005.0
20260509025959 45 246 0.0 1.7 0.00 0.00 0.00 54 1004.8
20260509025458 46 246 0.0 1.7 0.00 0.00 0.00 53 1004.9
20260509025000 46 246 0.0 0.9 0.00 0.00 0.00 56 1005.0
20260509024459 46 246 0.0 0.9 0.00 0.00 0.00 55 1005.1
20260509024000 47 246 0.0 0.9 0.00 0.00 0.00 55 1004.9
20260509023459 47 246 0.0 0.9 0.00 0.00 0.00 55 1005.1
20260509022959 48 246 0.0 0.9 0.00 0.00 0.00 54 1005.1
20260509022500 48 246 0.0 0.0 0.00 0.00 0.00 53 1005.0
20260509014959 51 246 0.0 0.9 0.00 0.00 0.00 43 1004.9
20260509014458 51 246 0.0 0.9 0.00 0.00 0.00 43 1004.9
20260509013959 52 246 0.0 0.9 0.00 0.00 0.00 43 1004.9
20260509013459 53 246 0.0 0.0 0.00 0.00 0.00 41 1004.9
20260509012959 53 246 0.0 0.0 0.00 0.00 0.00 41 1005.0
20260509012459 54 246 0.0 0.0 0.00 0.00 0.00 40 1004.9
20260509011958 54 246 0.0 0.0 0.00 0.00 0.00 40 1004.9
20260509011500 55 246 0.0 0.0 0.00 0.00 0.00 39 1005.0
20260509010959 56 246 0.0 0.0 0.00 0.00 0.00 38 1004.9
20260509010500 56 246 0.0 0.0 0.00 0.00 0.00 38 1004.9
20260509010001 57 246 0.0 0.0 0.00 0.00 0.00 37 1005.0
20260509005500 58 246 0.0 0.0 0.00 0.00 0.00 36 1005.0
20260509005001 58 246 0.0 0.0 0.00 0.00 0.00 36 1005.0
20260509004500 59 246 0.0 0.0 0.00 0.00 0.00 35 1005.0
20260509004000 59 246 0.0 0.9 0.00 0.00 0.00 35 1005.0
20260509003501 59 246 0.0 0.9 0.00 0.00 0.00 34 1004.9
20260509003000 60 246 0.0 0.0 0.00 0.00 0.00 33 1005.0
20260509002500 60 246 0.0 0.9 0.00 0.00 0.00 32 1005.0
20260509002000 60 246 0.0 1.7 0.00 0.00 0.00 32 1005.0
20260509001500 60 238 0.0 1.7 0.00 0.00 0.00 32 1005.1
20260509001000 60 253 0.0 3.5 0.00 0.00 0.00 33 1005.2
20260509000500 61 218 0.9 4.3 0.00 0.00 0.00 32 1005.2
20260508235959 61 225 0.9 4.3 0.00 0.00 0.00 32 1005.4
20260508235459 60 229 0.9 4.3 0.00 0.00 0.00 32 1005.4
20260508234958 61 276 0.9 4.3 0.00 0.00 0.00 32 1005.4
20260508234500 61 260 1.7 7.8 0.00 0.00 0.00 33 1005.4
20260508233958 61 328 2.6 7.8 0.00 0.00 0.00 32 1005.4
20260508233458 61 282 1.7 5.2 0.00 0.00 0.00 33 1005.4
20260508232959 61 243 1.7 4.3 0.00 0.00 0.00 34 1005.4
20260508232459 61 251 1.7 5.2 0.00 0.00 0.00 33 1005.4
20260508231959 61 266 1.7 5.2 0.00 0.00 0.00 33 1005.4
20260508231458 61 334 2.6 7.0 0.00 0.00 0.00 32 1005.4
20260508220459 63 337 2.6 7.0 0.00 0.00 0.00 32 1005.4
20260508215958 63 276 1.7 7.0 0.00 0.00 0.00 32 1005.5
20260508215459 64 340 2.6 5.2 0.00 0.00 0.00 31 1005.5
20260508214958 64 259 1.7 4.3 0.00 0.00 0.00 32 1005.5
20260508214459 64 260 2.6 7.0 0.00 0.00 0.00 28 1005.4
20260508213959 63 257 2.6 7.8 0.00 0.00 0.00 31 1005.4
20260508213459 63 266 3.5 8.7 0.00 0.00 0.00 29 1005.5
20260508205959 64 293 2.6 8.7 0.00 0.00 0.00 30 1005.7
20260508205458 64 336 5.2 8.7 0.00 0.00 0.00 30 1005.8
20260508204958 64 226 3.5 8.7 0.00 0.00 0.00 28 1005.7
20260508204458 64 355 3.5 7.8 0.00 0.00 0.00 30 1005.7
20260508203959 64 217 3.5 8.7 0.00 0.00 0.00 30 1005.8
20260508203458 64 324 4.3 8.7 0.00 0.00 0.00 29 1005.8
20260508202959 65 260 2.6 4.3 0.00 0.00 0.00 29 1006.0
20260508202456 65 254 2.6 7.8 0.00 0.00 0.00 31 1006.2
20260508201956 65 209 3.5 7.8 0.00 0.00 0.00 29 1006.1
20260508201457 65 305 2.6 7.8 0.00 0.00 0.00 29 1006.1
20260508200957 65 221 3.5 7.8 0.00 0.00 0.00 29 1006.1
20260508200457 65 281 1.7 7.8 0.00 0.00 0.00 30 1006.2
20260508195958 65 307 3.5 9.6 0.00 0.00 0.00 29 1006.3
20260508192456 65 195 3.5 7.0 0.00 0.00 0.00 32 1006.7
20260508191956 65 199 2.6 7.0 0.00 0.00 0.00 33 1006.7
20260508191455 64 318 3.5 6.1 0.00 0.00 0.00 31 1006.7
20260508190956 64 299 2.6 7.8 0.00 0.00 0.00 34 1006.7
20260508190455 63 305 3.5 7.8 0.00 0.00 0.00 32 1006.8
20260508185958 64 224 3.5 7.8 0.00 0.00 0.00 32 1006.8
20260508185457 62 236 3.5 7.0 0.00 0.00 0.00 33 1006.9
20260508184957 63 352 1.7 6.1 0.00 0.00 0.00 39 1007.0
20260508184457 63 325 2.6 6.1 0.00 0.00 0.00 37 1007.0
20260508183957 62 266 3.5 8.7 0.00 0.00 0.00 37 1007.0
20260508183458 63 271 3.5 8.7 0.00 0.00 0.00 37 1007.0
20260508182958 63 213 3.5 7.8 0.00 0.00 0.00 36 1007.1
20260508182457 62 266 2.6 9.6 0.00 0.00 0.00 37 1007.3
20260508174956 61 230 1.7 5.2 0.00 0.00 0.00 37 1007.5
20260508174456 61 350 1.7 7.0 0.00 0.00 0.00 39 1007.6
20260508173956 60 220 2.6 7.0 0.00 0.00 0.00 32 1007.9
20260508173456 61 205 0.9 9.6 0.00 0.00 0.00 34 1008.0
20260508172956 62 220 3.5 9.6 0.00 0.00 0.00 35 1008.1
20260508172456 62 280 2.6 5.2 0.00 0.00 0.00 37 1008.1
20260508171955 61 261 1.7 5.2 0.00 0.00 0.00 36 1008.2
20260508171457 61 23 1.7 7.8 0.00 0.00 0.00 37 1008.4
20260508170956 62 209 3.5 8.7 0.00 0.00 0.00 36 1008.4
20260508170455 61 257 3.5 8.7 0.00 0.00 0.00 32 1008.4
20260508165956 61 271 2.6 7.8 0.00 0.00 0.00 33 1008.4
20260508165456 61 318 2.6 9.6 0.00 0.00 0.00 32 1008.6
20260508164956 61 183 3.5 9.6 0.00 0.00 0.00 31 1008.7
20260508164456 62 294 1.7 7.0 0.00 0.00 0.00 34 1008.8
20260508163957 62 244 2.6 9.6 0.00 0.00 0.00 31 1008.8
20260508163456 61 339 2.6 10.4 0.00 0.00 0.00 32 1008.9
20260508162955 61 237 4.3 8.7 0.00 0.00 0.00 33 1008.9
20260508162456 61 276 2.6 8.7 0.00 0.00 0.00 32 1008.9
20260508161956 61 302 3.5 6.1 0.00 0.00 0.00 33 1009.0
20260508161456 61 276 2.6 7.0 0.00 0.00 0.00 35 1008.9
20260508160956 60 46 1.7 7.0 0.00 0.00 0.00 37 1008.9
20260508160456 59 220 1.7 6.1 0.00 0.00 0.00 36 1008.9
20260508155956 59 217 1.7 7.8 0.00 0.00 0.00 34 1009.0
20260508155456 59 311 3.5 7.8 0.00 0.00 0.00 36 1009.1
20260508154956 59 159 0.9 7.8 0.00 0.00 0.00 32 1009.2
20260508154456 59 305 2.6 5.2 0.00 0.00 0.00 40 1009.2
20260508153956 59 258 2.6 5.2 0.00 0.00 0.00 34 1009.2
20260508153456 59 271 1.7 7.8 0.00 0.00 0.00 35 1009.2
20260508152956 59 258 3.5 8.7 0.00 0.00 0.00 37 1009.3
20260508152456 59 145 3.5 8.7 0.00 0.00 0.00 33 1009.3
20260508151956 59 232 3.5 7.8 0.00 0.00 0.00 36 1009.4
20260508151456 58 297 2.6 7.8 0.00 0.00 0.00 36 1009.4
20260508150956 58 233 1.7 11.3 0.00 0.00 0.00 33 1009.3
20260508150456 58 237 4.3 11.3 0.00 0.00 0.00 35 1009.4
20260508145957 58 211 1.7 4.3 0.00 0.00 0.00 40 1009.4
20260508145456 58 325 1.7 7.0 0.00 0.00 0.00 42 1009.5
20260508144957 58 242 3.5 7.0 0.00 0.00 0.00 41 1009.4
20260508144456 57 231 1.7 4.3 0.00 0.00 0.00 39 1009.5
20260508143956 57 303 1.7 4.3 0.00 0.00 0.00 40 1009.6
20260508143456 57 217 1.7 4.3 0.00 0.00 0.00 40 1009.5
20260508142956 56 164 2.6 7.0 0.00 0.00 0.00 38 1009.5
20260508142456 56 222 4.3 7.0 0.00 0.00 0.00 39 1009.6
20260508141956 56 146 2.6 5.2 0.00 0.00 0.00 42 1009.7
20260508141456 56 276 2.6 4.3 0.00 0.00 0.00 45 1009.8
20260508140956 55 334 2.6 4.3 0.00 0.00 0.00 46 1009.8
20260508140456 55 208 2.6 4.3 0.00 0.00 0.00 44 1009.7
20260508135959 55 322 2.6 4.3 0.00 0.00 0.00 47 1009.7
20260508135457 55 221 1.7 4.3 0.00 0.00 0.00 51 1009.8
20260508134957 54 197 0.9 4.3 0.00 0.00 0.00 53 1009.8
20260508134456 54 304 2.6 4.3 0.00 0.00 0.00 53 1009.8
20260508133958 53 213 0.9 4.3 0.00 0.00 0.00 58 1009.8
20260508133457 53 239 1.7 3.5 0.00 0.00 0.00 59 1009.8
20260508132957 52 320 0.9 2.6 0.00 0.00 0.00 62 1009.8
20260508132457 52 219 0.9 4.3 0.00 0.00 0.00 60 1010.0
20260508131958 52 211 1.7 4.3 0.00 0.00 0.00 61 1010.1
20260508131457 52 244 0.9 2.6 0.00 0.00 0.00 61 1010.1
20260508130957 51 266 0.0 3.5 0.00 0.00 0.00 65 1010.1
20260508130457 50 221 0.9 3.5 0.00 0.00 0.00 63 1010.1
20260508125958 50 220 0.9 2.6 0.00 0.00 0.00 64 1010.2
20260508125457 49 213 0.9 2.6 0.00 0.00 0.00 69 1010.1
20260508124958 47 218 0.9 2.6 0.00 0.00 0.00 74 1010.2
20260508124457 42 246 0.0 2.6 0.00 0.00 0.00 90 1010.2
20260508123957 40 180 0.9 2.6 0.00 0.00 0.00 91 1010.1
20260508123456 39 181 0.0 1.7 0.00 0.00 0.00 91 1010.2
20260508122957 38 181 0.9 1.7 0.00 0.00 0.00 91 1010.1
20260508122458 37 220 0.9 1.7 0.00 0.00 0.00 91 1010.1
20260508121957 36 55 0.0 0.9 0.00 0.00 0.00 90 1010.0
20260508121456 35 22 0.0 0.0 0.00 0.00 0.00 90 1010.0
20260508120957 34 22 0.0 0.0 0.00 0.00 0.00 90 1009.8
20260508120457 33 22 0.0 0.0 0.00 0.00 0.00 90 1009.6
20260508115955 32 22 0.0 0.0 0.00 0.00 0.00 89 1009.7
20260508115455 32 22 0.0 0.0 0.00 0.00 0.00 89 1009.6
20260508114956 31 22 0.0 0.0 0.00 0.00 0.00 88 1009.7
20260508114455 31 22 0.0 0.0 0.00 0.00 0.00 88 1009.5
20260508113955 31 22 0.0 0.0 0.00 0.00 0.00 88 1009.5
20260508113455 30 22 0.0 0.0 0.00 0.00 0.00 88 1009.5
20260508112955 30 22 0.0 0.0 0.00 0.00 0.00 87 1009.5
20260508105455 30 22 0.0 0.0 0.00 0.00 0.00 87 1009.4
20260508104955 30 22 0.0 0.0 0.00 0.00 0.00 86 1009.4
20260508104455 30 22 0.0 0.0 0.00 0.00 0.00 86 1009.4
20260508103955 30 22 0.0 0.0 0.00 0.00 0.00 86 1009.4
20260508103455 30 22 0.0 0.0 0.00 0.00 0.00 86 1009.4
20260508102956 30 22 0.0 0.0 0.00 0.00 0.00 86 1009.3
20260508102455 30 22 0.0 0.0 0.00 0.00 0.00 85 1009.4
20260508101957 30 22 0.0 0.0 0.00 0.00 0.00 85 1009.4
20260508101455 30 22 0.0 0.0 0.00 0.00 0.00 85 1009.4
20260508100955 30 22 0.0 0.0 0.00 0.00 0.00 85 1009.5
20260508100456 30 22 0.0 0.0 0.00 0.00 0.00 85 1009.5
20260508095956 30 22 0.0 0.0 0.00 0.00 0.00 85 1009.5
20260508095456 31 22 0.0 0.0 0.00 0.00 0.00 85 1009.6
20260508091455 31 22 0.0 0.0 0.00 0.00 0.00 84 1009.7
20260508090955 31 22 0.0 0.0 0.00 0.00 0.00 83 1009.6
20260508090455 32 22 0.0 0.0 0.00 0.00 0.00 83 1009.6
20260508085958 32 22 0.0 0.0 0.00 0.00 0.00 83 1009.6
20260508085457 32 22 0.0 0.0 0.00 0.00 0.00 83 1009.6
20260508084956 32 22 0.0 0.0 0.00 0.00 0.00 83 1009.6
20260508084457 32 22 0.0 0.0 0.00 0.00 0.00 83 1009.6
20260508083958 32 22 0.0 0.0 0.00 0.00 0.00 83 1009.6
20260508083456 33 22 0.0 0.0 0.00 0.00 0.00 83 1009.6
20260508082957 33 22 0.0 0.0 0.00 0.00 0.00 83 1009.6
20260508082456 33 22 0.0 0.0 0.00 0.00 0.00 82 1009.7
20260508081955 33 22 0.0 0.0 0.00 0.00 0.00 83 1009.7
20260508081456 33 22 0.0 0.0 0.00 0.00 0.00 83 1009.8
20260508080956 34 22 0.0 0.0 0.00 0.00 0.00 83 1009.8
20260508080455 34 22 0.0 0.0 0.00 0.00 0.00 82 1009.9